Flag for Germany Weather past 2 weeks in Hattingen, North Rhine-Westphalia, Germany

Now
49 °F

Overcast.


Feels Like: 48 °F
Forecast: 40 / 63 °F
Wind: 3 mph from Northwest

Location: Essen

Current Time: May 26, 2015 at 4:20:51 AM

Latest Report: May 26, 2015 at 4:00 AM


Visibility: 28 mi

Pressure: 30.06 "Hg

Humidity: 79%

Dew point: 42 °F

Location of HattingenLocation

Historic Weather in Hattingen — Graph

°F

Hattingen temperature yesterday

Maximum temperature yesterday: 59 °F (at 6:00 PM)
Minimum temperature yesterday: 50 °F (at 7:00 AM)
Average temperature yesterday: 54 °F

Past Weeks' High & Low Weather Summary

 TemperatureHumidityPressure
High76 °F (May 11, 7:00 PM)100% (May 16, 4:00 PM)30.34 "Hg (May 16, 4:00 PM)
Low42 °F (May 16, 6:00 AM)37% (May 13, 6:00 PM)29.64 "Hg (May 18, 9:00 PM)
Average55 °F68%30.06 "Hg
* Reported May 11 3:00 AM — May 26 3:00 AM, Hattingen, Weather by CustomWeather, © 2015

Note: Actual official high and low records may vary slightly from our data, if they occured in-between our weather recording intervals... More about our weather records

Advertising

Hattingen weather history for previous 24 hours

 ConditionsComfort  
Time TempWeatherWind HumidityBarometerVisibility
3:00 AM
Tue, May 26
49 °FOvercast.3 mph77%30.05 "Hg28 mi
2:00 AM50 °FOvercast.3 mph75%30.04 "Hg31 mi
1:00 AM51 °FOvercast.2 mph76%30.04 "Hg31 mi
12:00 AM51 °FOvercast.5 mph75%30.03 "Hg28 mi
11:00 PM
Mon, May 25
53 °FOvercast.3 mph74%30.02 "Hg25 mi
10:00 PM54 °FOvercast.5 mph70%30.01 "Hg28 mi
9:00 PM55 °FOvercast.3 mph62%29.98 "Hg31 mi
8:00 PM57 °FOvercast.3 mph58%29.98 "Hg34 mi
7:00 PM58 °FOvercast.3 mph59%29.97 "Hg28 mi
6:00 PM59 °FOvercast.5 mph57%29.96 "Hg31 mi
5:00 PM59 °FOvercast.2 mph60%29.96 "Hg22 mi
4:00 PM58 °FOvercast.3 mph66%29.97 "Hg19 mi
3:00 PM58 °FOvercast.3 mph66%29.98 "Hg18 mi
2:00 PM54 °FOvercast.3 mph79%29.99 "Hg15 mi
1:00 PM52 °FOvercast.1 mph88%30.00 "Hg16 mi
12:00 PM52 °FLow clouds.3 mph96%29.98 "Hg7 mi
11:00 AM52 °FDrizzle. Low clouds.2 mph100%29.99 "Hg1 mi
10:00 AM51 °FDrizzle. Low clouds.3 mph100%29.99 "Hg1 mi
9:00 AM51 °FLight freezing rain. Low clouds.2 mph99%30.00 "Hg2 mi
8:00 AM51 °FOvercast.1 mph95%30.00 "Hg6 mi
7:00 AM50 °FOvercast.1 mph95%30.00 "Hg6 mi
6:00 AM50 °FDrizzle. Overcast.2 mph86%30.00 "Hg7 mi
5:00 AM50 °FLight rain. Low clouds.1 mph87%30.01 "Hg5 mi
4:00 AM54 °FOvercast.1 mph66%30.01 "Hg17 mi
Weather by CustomWeather, © 2015

See weather overviewHow to use our weather pages